COSMOS 2534 (758)

Last updated on Jan. 27, 2020, 4:39 a.m. UTC

1 44299U 19030A   20026.78011427  .00000022  00000-0  00000-0 0  9995
2 44299  64.6853 271.8782 0013178 296.8392  10.2828  2.13101929  5202
UTC
Height (km)
Latitude
Longitude
Inclination
Orbital Period
UTC large
Height (km)
Speed (km/s)
/
Latitude / Longitude
Inclination (degrees)
Orbital Period (minutes)
Azimuth
Elevation
Range (km)
Doppler Factor
iOS Compass Heading
iOS Angle

Next 30 passes for location: Hong Kong

Rise time Rise Azimuth (degrees) Set time Set Azimuth (degrees) Duration Max altitude (degrees)

No matching passes for this satellites